Location: Follega
(52.8850°N, 5.7362°E)
Time: 21:15:22
(UTC+00:00)

CARTOSAT-1 - Pass Details

Date: 03 October 2020
Orbit: 616 x 619 km, 97.8° (Epoch: 22 October)

Event Time Altitude Azimuth Distance (km) Brightness Sun altitude
Exits shadow 19:50:28 18° 28° (NNE) 1,542 5.6 -24.6°
Drops below altitude 10° 19:52:07 10° 9° (N) 1,994 6.4 -24.8°
Sets 19:54:40 0° 355° (N) 2,904 7.5 -25.1°
